Location: Julian California
(33.0790°N, 116.6010°W)
Time: 00:10:22
(UTC-07:00)

Cosmos-2242 - Pass Details

Date: 14 June 2018
Orbit: 591 x 618 km, 82.5° (Epoch: 14 August)

Event Time Altitude Azimuth Distance (km) Brightness Sun altitude
Rises 22:08:58 0° 5° (N) 2,881 7.2 -22.2°
Reaches altitude 10° 22:11:23 10° 15° (NNE) 1,976 6.1 -22.5°
Enters shadow 22:14:42 31° 62° (ENE) 1,093 4.2 -23.0°
